Home   Weather   Kawartha Lakes   Past weeks

Flag for Canada Past Weather in Kawartha Lakes, Ontario, Canada — Yesterday and Last 2 Weeks

Now
65 °F

Mild.


Feels Like: 65 °F
Forecast: 47 / 71 °F
Wind: 12 mph from Southeast

Location: Lagoon City

Current Time: Sep 28, 2016 at 11:30:10 AM

Latest Report: Sep 28, 2016 at 11:00 AM


Visibility: N/A

Pressure: 30.03 "Hg

Humidity: 58%

Dew Point: 49 °F

Location of Kawartha LakesLocation

Past Weather in Kawartha Lakes — Graph

°F

Kawartha Lakes Temperature Yesterday

Maximum temperature yesterday: 66 °F (at 5:00 PM)
Minimum temperature yesterday: 55 °F (at 11:00 PM)
Average temperature yesterday: 61 °F

High & Low Weather Summary for the Past Weeks

 TemperatureHumidityPressure
High76 °F (Sep 18, 5:00 PM)99% (Sep 19, 3:00 AM)30.38 "Hg (Sep 19, 3:00 AM)
Low40 °F (Sep 25, 7:00 AM)33% (Sep 25, 5:00 PM)29.72 "Hg (Sep 27, 2:00 PM)
Average62 °F73%30.07 "Hg
* Reported Sep 13 10:00 AM — Sep 28 10:00 AM, Kawartha Lakes, Weather by CustomWeather, © 2016

Note: Actual official high and low records may vary slightly from our data, if they occured in-between our weather recording intervals... More about our weather records

Advertising

Kawartha Lakes Weather History for the Previous 24 Hours

Scroll right to see more
 ConditionsComfort  
Time TempWeatherWind HumidityBarometerVisibility
10:00 AM
Wed, Sep 28
63 °FMild.7 mph63%30.02 "HgN/A
9:00 AM60 °FCool.5 mph71%30.00 "HgN/A
8:00 AM55 °FCool.7 mph84%29.98 "HgN/A
7:00 AM51 °FCool.7 mph92%29.97 "HgN/A
6:00 AM52 °FCool.7 mph90%29.94 "HgN/A
5:00 AM51 °FCool.5 mph91%29.93 "HgN/A
4:00 AM52 °FCool.2 mph85%29.91 "HgN/A
3:00 AM52 °FCool.8 mph80%29.90 "HgN/A
2:00 AM52 °FCool.8 mph73%29.89 "HgN/A
1:00 AM52 °FCool.6 mph69%29.88 "HgN/A
12:00 AM52 °FCool.5 mph83%29.88 "HgN/A
11:00 PM
Tue, Sep 27
55 °FCool.5 mph77%29.85 "HgN/A
10:00 PM58 °FCool.2 mph69%29.83 "HgN/A
9:00 PM64 °FMild.14 mph54%29.81 "HgN/A
8:00 PM66 °FMild.14 mph53%29.78 "HgN/A
7:00 PM64 °FMild.10 mph56%29.76 "HgN/A
6:00 PM65 °FMild.13 mph53%29.74 "HgN/A
5:00 PM66 °FMild.8 mph41%29.73 "HgN/A
4:00 PM65 °FMild.13 mph42%29.73 "HgN/A
3:00 PM65 °FMild.17 mph48%29.73 "HgN/A
2:00 PM65 °FMild.18 mph42%29.72 "HgN/A
1:00 PM64 °FMild.20 mph50%29.72 "HgN/A
12:00 PM62 °FMild.16 mph54%29.75 "HgN/A
11:00 AM61 °FRefreshingly cool.16 mph59%29.75 "HgN/A
Weather by CustomWeather, © 2016

See weather overviewHow to use our weather pages